Time,TemperatureF,DewpointF,PressureIn,WindDirection,WindDirectionDegrees,WindSpeedMPH,WindSpeedGustMPH,Humidity,HourlyPrecipIn,Conditions,Clouds,dailyrainin,SoftwareType,DateUTC
2013-05-31 00:01:00,74.8,66.4,29.76,ESE,120,1.8,8.3,75,0.00,,,0.00,WUHU21623XXSP,2013-05-31 04:01:00,
2013-05-31 00:06:00,74.8,66.4,29.76,SSW,213,2.0,4.7,75,0.00,,,0.00,WUHU21623XXSP,2013-05-31 04:06:00,
2013-05-31 00:11:00,74.8,66.4,29.76,SSW,195,2.4,6.0,75,0.00,,,0.00,WUHU21623XXSP,2013-05-31 04:11:00,
2013-05-31 00:16:00,75.0,66.6,29.76,SSW,193,1.3,6.0,75,0.00,,,0.00,WUHU21623XXSP,2013-05-31 04:16:00,
2013-05-31 00:21:00,75.0,66.6,29.76,South,188,1.8,4.7,75,0.00,,,0.00,WUHU21623XXSP,2013-05-31 04:21:00,
2013-05-31 00:26:00,74.8,66.4,29.76,SSW,202,0.0,4.7,75,0.00,,,0.00,WUHU21623XXSP,2013-05-31 04:26:00,
2013-05-31 00:31:00,74.8,66.4,29.76,ENE,67,2.0,2.9,75,0.00,,,0.00,WUHU21623XXSP,2013-05-31 04:31:00,
2013-05-31 00:36:00,74.8,66.4,29.75,SW,225,2.9,8.3,75,0.00,,,0.00,WUHU21623XXSP,2013-05-31 04:36:00,
2013-05-31 00:41:00,74.8,66.4,29.75,SSW,204,2.2,8.3,75,0.00,,,0.00,WUHU21623XXSP,2013-05-31 04:41:00,
2013-05-31 00:46:00,74.8,66.4,29.75,SE,139,1.8,3.6,75,0.00,,,0.00,WUHU21623XXSP,2013-05-31 04:46:00,
2013-05-31 00:51:00,74.8,66.4,29.75,SSW,208,4.1,9.4,75,0.00,,,0.00,WUHU21623XXSP,2013-05-31 04:51:00,
2013-05-31 00:56:00,74.8,66.8,29.74,East,90,0.0,10.1,76,0.00,,,0.00,WUHU21623XXSP,2013-05-31 04:56:00,
2013-05-31 01:01:00,74.8,66.4,29.74,SSW,202,3.1,10.1,75,0.00,,,0.00,WUHU21623XXSP,2013-05-31 05:01:00,
2013-05-31 01:06:00,74.8,66.4,29.75,SSE,157,1.3,5.8,75,0.00,,,0.00,WUHU21623XXSP,2013-05-31 05:06:00,
2013-05-31 01:11:00,74.8,66.4,29.74,ENE,67,1.3,5.8,75,0.00,,,0.00,WUHU21623XXSP,2013-05-31 05:11:00,
2013-05-31 01:16:00,74.8,66.8,29.74,SW,225,2.4,5.4,76,0.00,,,0.00,WUHU21623XXSP,2013-05-31 05:16:00,
2013-05-31 01:21:00,74.7,66.6,29.74,SSE,157,1.3,5.4,76,0.00,,,0.00,WUHU21623XXSP,2013-05-31 05:21:00,
2013-05-31 01:26:00,74.5,66.4,29.74,ESE,112,0.0,1.8,76,0.00,,,0.00,WUHU21623XXSP,2013-05-31 05:26:00,
2013-05-31 01:31:00,74.5,66.4,29.73,SSE,162,1.6,5.8,76,0.00,,,0.00,WUHU21623XXSP,2013-05-31 05:31:00,
2013-05-31 01:36:00,74.3,66.3,29.73,ENE,67,0.0,5.8,76,0.00,,,0.00,WUHU21623XXSP,2013-05-31 05:36:00,
2013-05-31 01:41:00,74.3,66.3,29.73,SSE,164,1.5,3.8,76,0.00,,,0.00,WUHU21623XXSP,2013-05-31 05:41:00,
2013-05-31 01:46:00,74.1,66.5,29.73,South,172,1.2,5.8,77,0.00,,,0.00,WUHU21623XXSP,2013-05-31 05:46:00,
2013-05-31 01:51:00,74.1,66.5,29.73,South,190,2.7,9.2,77,0.00,,,0.00,WUHU21623XXSP,2013-05-31 05:51:00,
2013-05-31 01:56:00,74.1,66.1,29.77,West,280,4.0,9.2,76,0.00,,,0.00,WUHU21623XXSP,2013-05-31 05:56:00,
2013-05-31 02:01:00,73.9,64.4,29.78,South,190,9.2,12.3,72,0.00,,,0.00,WUHU21623XXSP,2013-05-31 06:01:00,
2013-05-31 02:06:00,72.7,63.9,29.77,West,277,1.7,12.3,74,0.04,,,0.04,WUHU21623XXSP,2013-05-31 06:06:00,
2013-05-31 02:11:00,71.4,63.4,29.77,South,188,2.0,10.1,76,0.06,,,0.06,WUHU21623XXSP,2013-05-31 06:11:00,
2013-05-31 02:16:00,70.3,63.1,29.77,SSE,157,4.0,8.1,78,0.06,,,0.06,WUHU21623XXSP,2013-05-31 06:16:00,
2013-05-31 02:22:00,69.4,63.0,29.76,SSW,199,4.5,6.0,80,0.19,,,0.19,WUHU21623XXSP,2013-05-31 06:22:00,
2013-05-31 02:27:00,68.4,62.3,29.77,ENE,67,0.0,6.0,81,0.21,,,0.21,WUHU21623XXSP,2013-05-31 06:27:00,
2013-05-31 02:32:00,67.8,62.5,29.76,West,270,1.3,4.0,83,0.21,,,0.21,WUHU21623XXSP,2013-05-31 06:32:00,
2013-05-31 02:37:00,67.3,62.0,29.76,South,180,0.0,2.2,83,0.21,,,0.21,WUHU21623XXSP,2013-05-31 06:37:00,
2013-05-31 02:43:00,67.1,62.1,29.76,SSW,202,3.1,3.1,84,0.21,,,0.21,WUHU21623XXSP,2013-05-31 06:43:00,
2013-05-31 02:48:00,66.9,62.2,29.76,SSW,201,1.5,3.1,85,0.21,,,0.21,WUHU21623XXSP,2013-05-31 06:48:00,
2013-05-31 02:53:00,66.7,62.4,29.76,SW,218,1.9,4.0,86,0.21,,,0.21,WUHU21623XXSP,2013-05-31 06:53:00,
2013-05-31 02:58:00,66.6,62.2,29.76,SSW,202,6.0,6.0,86,0.21,,,0.21,WUHU21623XXSP,2013-05-31 06:58:00,
2013-05-31 03:03:00,66.6,62.2,29.76,SSE,157,0.0,6.0,86,0.21,,,0.21,WUHU21623XXSP,2013-05-31 07:03:00,
2013-05-31 03:08:00,66.6,62.5,29.76,SSE,157,1.8,2.0,87,0.15,,,0.21,WUHU21623XXSP,2013-05-31 07:08:00,
2013-05-31 03:13:00,66.6,62.5,29.76,SE,140,1.7,2.2,87,0.15,,,0.21,WUHU21623XXSP,2013-05-31 07:13:00,
2013-05-31 03:18:00,66.6,62.5,29.75,East,90,1.3,2.2,87,0.11,,,0.21,WUHU21623XXSP,2013-05-31 07:18:00,
2013-05-31 03:23:00,66.6,62.5,29.75,SW,219,2.2,3.6,87,0.02,,,0.21,WUHU21623XXSP,2013-05-31 07:23:00,
2013-05-31 03:28:00,66.4,62.7,29.75,NE,45,0.0,3.6,88,0.00,,,0.21,WUHU21623XXSP,2013-05-31 07:28:00,
2013-05-31 03:33:00,66.4,62.7,29.74,West,270,2.5,3.6,88,0.00,,,0.21,WUHU21623XXSP,2013-05-31 07:33:00,
2013-05-31 03:38:00,66.4,62.7,29.75,ESE,112,1.8,7.4,88,0.00,,,0.21,WUHU21623XXSP,2013-05-31 07:38:00,
2013-05-31 03:43:00,66.2,62.2,29.74,ESE,112,0.0,7.4,87,0.00,,,0.21,WUHU21623XXSP,2013-05-31 07:43:00,
2013-05-31 03:48:00,66.0,62.0,29.73,East,90,0.0,2.7,87,0.00,,,0.21,WUHU21623XXSP,2013-05-31 07:48:00,
2013-05-31 03:53:00,66.0,62.3,29.73,WSW,247,1.1,2.7,88,0.00,,,0.21,WUHU21623XXSP,2013-05-31 07:53:00,
2013-05-31 03:58:00,66.0,62.3,29.73,North,0,0.0,1.3,88,0.00,,,0.21,WUHU21623XXSP,2013-05-31 07:58:00,
2013-05-31 04:03:00,66.0,62.3,29.73,ESE,112,0.0,0.0,88,0.00,,,0.21,WUHU21623XXSP,2013-05-31 08:03:00,
2013-05-31 04:08:00,65.8,62.2,29.74,SW,221,3.3,4.0,88,0.00,,,0.21,WUHU21623XXSP,2013-05-31 08:08:00,
2013-05-31 04:13:00,65.8,62.2,29.74,SSW,202,2.5,4.0,88,0.00,,,0.21,WUHU21623XXSP,2013-05-31 08:13:00,
2013-05-31 04:18:00,65.8,62.2,29.74,SW,221,3.6,7.2,88,0.00,,,0.21,WUHU21623XXSP,2013-05-31 08:18:00,
2013-05-31 04:23:00,65.8,62.2,29.74,SE,138,1.8,7.2,88,0.00,,,0.21,WUHU21623XXSP,2013-05-31 08:23:00,
2013-05-31 04:28:00,65.8,62.2,29.73,SE,137,1.5,3.8,88,0.00,,,0.21,WUHU21623XXSP,2013-05-31 08:28:00,
2013-05-31 04:33:00,65.7,62.0,29.73,SE,124,1.5,2.0,88,0.00,,,0.21,WUHU21623XXSP,2013-05-31 08:33:00,
2013-05-31 04:38:00,65.7,62.0,29.73,ENE,67,0.0,2.0,88,0.00,,,0.21,WUHU21623XXSP,2013-05-31 08:38:00,
2013-05-31 04:43:00,65.5,61.8,29.72,SSW,202,0.0,1.1,88,0.00,,,0.21,WUHU21623XXSP,2013-05-31 08:43:00,
2013-05-31 04:48:00,65.5,61.8,29.72,East,90,0.0,1.6,88,0.00,,,0.21,WUHU21623XXSP,2013-05-31 08:48:00,
2013-05-31 04:53:00,65.5,61.8,29.72,NE,45,1.1,1.6,88,0.00,,,0.21,WUHU21623XXSP,2013-05-31 08:53:00,
2013-05-31 04:58:00,65.5,61.8,29.71,East,84,2.4,4.7,88,0.00,,,0.21,WUHU21623XXSP,2013-05-31 08:58:00,
2013-05-31 05:03:00,65.5,61.8,29.71,SW,225,3.8,4.7,88,0.00,,,0.21,WUHU21623XXSP,2013-05-31 09:03:00,
2013-05-31 05:08:00,65.5,61.8,29.71,SW,225,2.2,3.8,88,0.00,,,0.21,WUHU21623XXSP,2013-05-31 09:08:00,
2013-05-31 05:13:00,65.5,61.8,29.71,SW,225,2.0,2.2,88,0.00,,,0.21,WUHU21623XXSP,2013-05-31 09:13:00,
2013-05-31 05:18:00,65.5,61.8,29.71,SW,222,2.1,2.9,88,0.00,,,0.21,WUHU21623XXSP,2013-05-31 09:18:00,
2013-05-31 05:23:00,65.3,61.7,29.70,SW,225,2.5,2.9,88,0.00,,,0.21,WUHU21623XXSP,2013-05-31 09:23:00,
2013-05-31 05:28:00,65.3,61.7,29.71,ESE,112,0.0,2.5,88,0.00,,,0.21,WUHU21623XXSP,2013-05-31 09:28:00,
2013-05-31 05:33:00,65.3,61.7,29.71,SSE,157,0.0,1.3,88,0.00,,,0.21,WUHU21623XXSP,2013-05-31 09:33:00,
2013-05-31 05:38:00,65.1,61.5,29.71,ESE,120,1.2,2.0,88,0.00,,,0.21,WUHU21623XXSP,2013-05-31 09:38:00,
2013-05-31 05:43:00,65.1,61.5,29.70,SSW,202,0.0,2.0,88,0.00,,,0.21,WUHU21623XXSP,2013-05-31 09:43:00,
2013-05-31 05:48:00,65.1,61.5,29.70,East,90,0.0,0.9,88,0.00,,,0.21,WUHU21623XXSP,2013-05-31 09:48:00,
2013-05-31 05:53:00,65.1,61.5,29.70,South,190,1.3,1.8,88,0.00,,,0.21,WUHU21623XXSP,2013-05-31 09:53:00,
2013-05-31 05:58:00,65.1,61.8,29.70,South,180,1.8,4.0,89,0.00,,,0.21,WUHU21623XXSP,2013-05-31 09:58:00,
2013-05-31 06:03:00,65.3,62.0,29.70,NNE,22,1.8,4.0,89,0.00,,,0.21,WUHU21623XXSP,2013-05-31 10:03:00,
2013-05-31 06:08:00,65.3,62.0,29.71,South,187,2.0,6.5,89,0.00,,,0.21,WUHU21623XXSP,2013-05-31 10:08:00,
2013-05-31 06:13:00,65.5,62.2,29.71,ENE,67,0.7,6.5,89,0.00,,,0.21,WUHU21623XXSP,2013-05-31 10:13:00,
2013-05-31 06:18:00,65.5,62.2,29.71,ESE,111,1.6,8.7,89,0.00,,,0.21,WUHU21623XXSP,2013-05-31 10:18:00,
2013-05-31 06:23:00,65.7,62.3,29.71,WSW,247,0.0,8.7,89,0.00,,,0.21,WUHU21623XXSP,2013-05-31 10:23:00,
2013-05-31 06:28:00,65.8,62.5,29.71,ENE,67,0.0,5.6,89,0.00,,,0.21,WUHU21623XXSP,2013-05-31 10:28:00,
2013-05-31 06:33:00,65.8,62.5,29.70,SSW,202,2.8,5.6,89,0.00,,,0.21,WUHU21623XXSP,2013-05-31 10:33:00,
2013-05-31 06:38:00,65.8,62.5,29.70,SSW,202,0.9,3.8,89,0.00,,,0.21,WUHU21623XXSP,2013-05-31 10:38:00,
2013-05-31 06:43:00,66.0,62.6,29.70,SSW,202,1.3,5.4,89,0.00,,,0.21,WUHU21623XXSP,2013-05-31 10:43:00,
2013-05-31 06:48:00,66.0,62.6,29.70,SSW,203,2.6,7.8,89,0.00,,,0.21,WUHU21623XXSP,2013-05-31 10:48:00,
2013-05-31 06:53:00,66.2,62.8,29.70,South,180,0.0,7.8,89,0.00,,,0.21,WUHU21623XXSP,2013-05-31 10:53:00,
2013-05-31 06:58:00,66.4,63.0,29.70,SSW,209,1.9,8.9,89,0.00,,,0.21,WUHU21623XXSP,2013-05-31 10:58:00,
2013-05-31 07:03:00,66.6,62.9,29.70,South,188,1.0,8.9,88,0.00,,,0.21,WUHU21623XXSP,2013-05-31 11:03:00,
2013-05-31 07:08:00,66.7,63.0,29.71,SW,225,1.4,7.4,88,0.00,,,0.21,WUHU21623XXSP,2013-05-31 11:08:00,
2013-05-31 07:13:00,66.7,63.0,29.71,SSW,206,3.9,6.9,88,0.00,,,0.21,WUHU21623XXSP,2013-05-31 11:13:00,
2013-05-31 07:18:00,66.9,63.2,29.72,South,186,1.9,6.9,88,0.00,,,0.21,WUHU21623XXSP,2013-05-31 11:18:00,
2013-05-31 07:23:00,66.9,63.2,29.72,South,187,3.4,6.3,88,0.00,,,0.21,WUHU21623XXSP,2013-05-31 11:23:00,
2013-05-31 07:28:00,66.9,63.2,29.72,South,178,1.5,6.3,88,0.00,,,0.21,WUHU21623XXSP,2013-05-31 11:28:00,
2013-05-31 07:33:00,67.1,63.4,29.72,SW,230,4.2,6.0,88,0.00,,,0.21,WUHU21623XXSP,2013-05-31 11:33:00,
2013-05-31 07:38:00,67.3,63.6,29.73,South,186,1.5,6.0,88,0.00,,,0.21,WUHU21623XXSP,2013-05-31 11:38:00,
2013-05-31 07:43:00,67.3,63.6,29.74,SSW,204,2.1,4.3,88,0.00,,,0.21,WUHU21623XXSP,2013-05-31 11:43:00,
2013-05-31 07:48:00,67.3,63.6,29.75,SSW,204,2.7,9.2,88,0.00,,,0.21,WUHU21623XXSP,2013-05-31 11:48:00,
2013-05-31 07:53:00,67.6,63.9,29.75,SSW,212,3.9,9.2,88,0.00,,,0.21,WUHU21623XXSP,2013-05-31 11:53:00,
2013-05-31 07:58:00,67.6,63.9,29.74,SSE,163,1.6,8.5,88,0.00,,,0.21,WUHU21623XXSP,2013-05-31 11:58:00,
2013-05-31 08:03:00,67.8,64.1,29.73,South,188,2.2,8.5,88,0.00,,,0.21,WUHU21623XXSP,2013-05-31 12:03:00,
2013-05-31 08:08:00,67.8,63.8,29.74,WSW,238,3.3,5.1,87,0.00,,,0.21,WUHU21623XXSP,2013-05-31 12:08:00,
2013-05-31 08:13:00,67.8,63.8,29.74,West,270,2.2,5.1,87,0.00,,,0.21,WUHU21623XXSP,2013-05-31 12:13:00,
2013-05-31 08:18:00,68.2,64.1,29.74,South,180,4.0,5.1,87,0.00,,,0.21,WUHU21623XXSP,2013-05-31 12:18:00,
2013-05-31 08:23:00,68.2,64.1,29.74,South,184,1.8,4.0,87,0.00,,,0.21,WUHU21623XXSP,2013-05-31 12:23:00,
2013-05-31 08:28:00,68.4,64.3,29.74,SSW,202,3.3,7.4,87,0.00,,,0.21,WUHU21623XXSP,2013-05-31 12:28:00,
2013-05-31 08:33:00,68.5,64.1,29.73,SSW,202,2.9,7.4,86,0.00,,,0.21,WUHU21623XXSP,2013-05-31 12:33:00,
2013-05-31 08:38:00,68.5,64.1,29.74,South,191,2.1,5.8,86,0.00,,,0.21,WUHU21623XXSP,2013-05-31 12:38:00,
2013-05-31 08:43:00,68.7,64.0,29.73,WSW,247,0.7,4.9,85,0.00,,,0.21,WUHU21623XXSP,2013-05-31 12:43:00,
2013-05-31 08:48:00,68.9,64.5,29.74,South,179,2.1,7.4,86,0.00,,,0.21,WUHU21623XXSP,2013-05-31 12:48:00,
2013-05-31 08:53:00,69.1,64.3,29.74,SW,235,2.1,7.4,85,0.00,,,0.21,WUHU21623XXSP,2013-05-31 12:53:00,
2013-05-31 08:58:00,69.3,64.2,29.74,East,90,0.0,7.6,84,0.00,,,0.21,WUHU21623XXSP,2013-05-31 12:58:00,
2013-05-31 09:03:00,69.3,63.8,29.74,South,187,4.9,15.9,83,0.00,,,0.21,WUHU21623XXSP,2013-05-31 13:03:00,
2013-05-31 09:08:00,69.3,63.8,29.74,South,186,3.2,15.9,83,0.00,,,0.21,WUHU21623XXSP,2013-05-31 13:08:00,
2013-05-31 09:13:00,69.3,63.5,29.74,SSW,193,6.0,15.2,82,0.00,,,0.21,WUHU21623XXSP,2013-05-31 13:13:00,
2013-05-31 09:18:00,69.1,63.3,29.74,SSW,202,3.4,15.2,82,0.00,,,0.21,WUHU21623XXSP,2013-05-31 13:18:00,
2013-05-31 09:23:00,69.1,63.3,29.74,SW,222,3.8,7.6,82,0.00,,,0.21,WUHU21623XXSP,2013-05-31 13:23:00,
2013-05-31 09:28:00,69.1,63.3,29.74,SSW,202,3.6,7.6,82,0.00,,,0.21,WUHU21623XXSP,2013-05-31 13:28:00,
2013-05-31 09:33:00,69.1,63.0,29.74,SSW,209,4.4,9.8,81,0.00,,,0.21,WUHU21623XXSP,2013-05-31 13:33:00,
2013-05-31 09:38:00,69.3,63.2,29.74,West,270,0.0,9.8,81,0.00,,,0.21,WUHU21623XXSP,2013-05-31 13:38:00,
2013-05-31 09:43:00,69.4,63.3,29.73,SSW,202,3.6,7.6,81,0.00,,,0.21,WUHU21623XXSP,2013-05-31 13:43:00,
2013-05-31 09:48:00,69.6,63.2,29.74,SE,129,0.9,7.6,80,0.00,,,0.21,WUHU21623XXSP,2013-05-31 13:48:00,
2013-05-31 09:53:00,69.8,63.3,29.74,South,189,1.5,5.6,80,0.00,,,0.21,WUHU21623XXSP,2013-05-31 13:53:00,
2013-05-31 09:58:00,70.2,63.7,29.74,SSE,157,2.5,5.6,80,0.00,,,0.21,WUHU21623XXSP,2013-05-31 13:58:00,
2013-05-31 10:03:00,70.3,63.5,29.73,South,189,1.4,10.3,79,0.00,,,0.21,WUHU21623XXSP,2013-05-31 14:03:00,
2013-05-31 10:08:00,70.3,63.5,29.74,SSE,164,1.4,10.3,79,0.00,,,0.21,WUHU21623XXSP,2013-05-31 14:08:00,
2013-05-31 10:13:00,70.5,63.7,29.74,SSW,202,0.0,8.9,79,0.00,,,0.21,WUHU21623XXSP,2013-05-31 14:13:00,
2013-05-31 10:18:00,70.5,63.3,29.74,SW,214,2.2,6.7,78,0.00,,,0.21,WUHU21623XXSP,2013-05-31 14:18:00,
2013-05-31 10:23:00,70.7,63.8,29.74,South,180,4.7,6.7,79,0.00,,,0.21,WUHU21623XXSP,2013-05-31 14:23:00,
2013-05-31 10:28:00,70.9,63.6,29.74,South,177,1.0,11.0,78,0.00,,,0.21,WUHU21623XXSP,2013-05-31 14:28:00,
2013-05-31 10:33:00,70.9,63.6,29.74,South,187,2.4,17.2,78,0.00,,,0.21,WUHU21623XXSP,2013-05-31 14:33:00,
2013-05-31 10:38:00,71.1,63.8,29.73,South,186,4.0,17.2,78,0.00,,,0.21,WUHU21623XXSP,2013-05-31 14:38:00,
2013-05-31 10:43:00,71.2,63.6,29.73,SW,214,2.1,10.7,77,0.00,,,0.21,WUHU21623XXSP,2013-05-31 14:43:00,
2013-05-31 10:48:00,71.2,64.0,29.74,South,183,2.5,10.5,78,0.00,,,0.21,WUHU21623XXSP,2013-05-31 14:48:00,
2013-05-31 10:53:00,71.4,64.2,29.73,SE,136,2.9,7.8,78,0.00,,,0.21,WUHU21623XXSP,2013-05-31 14:53:00,
2013-05-31 10:58:00,71.8,63.8,29.74,East,90,3.1,7.8,76,0.00,,,0.21,WUHU21623XXSP,2013-05-31 14:58:00,
2013-05-31 11:03:00,72.1,64.1,29.74,SSW,201,2.9,12.8,76,0.00,,,0.21,WUHU21623XXSP,2013-05-31 15:03:00,
2013-05-31 11:08:00,72.1,63.8,29.74,South,185,2.1,12.8,75,0.00,,,0.21,WUHU21623XXSP,2013-05-31 15:08:00,
2013-05-31 11:13:00,72.3,64.3,29.74,South,180,3.1,9.6,76,0.00,,,0.21,WUHU21623XXSP,2013-05-31 15:13:00,
2013-05-31 11:18:00,72.3,64.3,29.74,SSW,202,3.6,9.6,76,0.00,,,0.21,WUHU21623XXSP,2013-05-31 15:18:00,
2013-05-31 11:23:00,72.5,64.1,29.74,SSW,202,11.2,11.2,75,0.00,,,0.21,WUHU21623XXSP,2013-05-31 15:23:00,
2013-05-31 11:28:00,72.7,64.7,29.74,SE,135,0.0,11.2,76,0.00,,,0.21,WUHU21623XXSP,2013-05-31 15:28:00,
2013-05-31 11:33:00,72.9,64.9,29.75,SW,225,5.1,9.8,76,0.00,,,0.21,WUHU21623XXSP,2013-05-31 15:33:00,
2013-05-31 11:38:00,73.0,64.7,29.74,SE,134,1.1,13.0,75,0.00,,,0.21,WUHU21623XXSP,2013-05-31 15:38:00,
2013-05-31 11:43:00,73.2,64.8,29.74,SSW,194,4.0,13.0,75,0.00,,,0.21,WUHU21623XXSP,2013-05-31 15:43:00,
2013-05-31 11:48:00,73.2,64.5,29.75,SSE,157,3.1,9.6,74,0.00,,,0.21,WUHU21623XXSP,2013-05-31 15:48:00,
2013-05-31 11:53:00,73.4,64.7,29.75,SSW,205,2.2,9.6,74,0.00,,,0.21,WUHU21623XXSP,2013-05-31 15:53:00,
2013-05-31 11:58:00,73.2,64.8,29.75,SSW,195,1.2,4.3,75,0.02,,,0.23,WUHU21623XXSP,2013-05-31 15:58:00,
2013-05-31 12:03:00,73.2,64.8,29.75,SSW,202,3.3,6.3,75,0.02,,,0.23,WUHU21623XXSP,2013-05-31 16:03:00,
2013-05-31 12:08:00,73.2,64.8,29.75,ESE,112,4.7,10.3,75,0.02,,,0.23,WUHU21623XXSP,2013-05-31 16:08:00,
2013-05-31 12:13:00,73.2,64.8,29.75,South,180,2.1,14.3,75,0.02,,,0.23,WUHU21623XXSP,2013-05-31 16:13:00,
2013-05-31 12:18:00,73.2,64.8,29.75,South,186,2.6,14.3,75,0.02,,,0.23,WUHU21623XXSP,2013-05-31 16:18:00,
2013-05-31 12:23:00,73.2,64.8,29.75,South,180,3.4,6.0,75,0.02,,,0.23,WUHU21623XXSP,2013-05-31 16:23:00,
2013-05-31 12:28:00,73.2,64.8,29.75,South,190,3.9,10.7,75,0.02,,,0.23,WUHU21623XXSP,2013-05-31 16:28:00,
2013-05-31 12:33:00,73.2,65.2,29.76,SW,219,2.0,10.7,76,0.02,,,0.23,WUHU21623XXSP,2013-05-31 16:33:00,
2013-05-31 12:38:00,73.4,65.4,29.76,SW,225,4.7,6.3,76,0.02,,,0.23,WUHU21623XXSP,2013-05-31 16:38:00,
2013-05-31 12:43:00,73.2,65.2,29.76,South,176,2.6,8.9,76,0.02,,,0.23,WUHU21623XXSP,2013-05-31 16:43:00,
2013-05-31 12:48:00,73.4,65.4,29.76,SSE,157,4.9,12.3,76,0.02,,,0.23,WUHU21623XXSP,2013-05-31 16:48:00,
2013-05-31 12:53:00,73.4,65.8,29.76,SSW,201,1.5,12.3,77,0.02,,,0.23,WUHU21623XXSP,2013-05-31 16:53:00,
2013-05-31 12:58:00,73.6,65.9,29.76,SSW,202,6.3,10.3,77,0.00,,,0.23,WUHU21623XXSP,2013-05-31 16:58:00,
2013-05-31 13:03:00,73.6,65.9,29.76,SSE,157,3.8,9.6,77,0.00,,,0.23,WUHU21623XXSP,2013-05-31 17:03:00,
2013-05-31 13:08:00,73.6,65.9,29.76,SSW,212,3.4,8.9,77,0.00,,,0.23,WUHU21623XXSP,2013-05-31 17:08:00,
2013-05-31 13:13:00,73.6,65.6,29.76,SE,142,2.6,8.9,76,0.00,,,0.23,WUHU21623XXSP,2013-05-31 17:13:00,
2013-05-31 13:18:00,73.6,65.6,29.76,SSW,202,4.3,7.6,76,0.00,,,0.23,WUHU21623XXSP,2013-05-31 17:18:00,
2013-05-31 13:23:00,73.6,65.9,29.76,SSE,167,2.8,7.8,77,0.00,,,0.23,WUHU21623XXSP,2013-05-31 17:23:00,
2013-05-31 13:28:00,73.6,65.6,29.75,SSW,192,2.4,7.8,76,0.00,,,0.23,WUHU21623XXSP,2013-05-31 17:28:00,
2013-05-31 13:33:00,73.6,65.6,29.75,SSW,205,3.9,12.3,76,0.00,,,0.23,WUHU21623XXSP,2013-05-31 17:33:00,
2013-05-31 13:38:00,73.6,65.6,29.75,WSW,247,6.7,12.3,76,0.00,,,0.23,WUHU21623XXSP,2013-05-31 17:38:00,
2013-05-31 13:43:00,73.8,65.4,29.75,West,270,4.3,11.4,75,0.00,,,0.23,WUHU21623XXSP,2013-05-31 17:43:00,
2013-05-31 13:48:00,73.8,65.4,29.75,South,180,5.4,15.9,75,0.00,,,0.23,WUHU21623XXSP,2013-05-31 17:48:00,
2013-05-31 13:53:00,73.8,65.4,29.75,SSW,199,3.8,15.9,75,0.00,,,0.23,WUHU21623XXSP,2013-05-31 17:53:00,
2013-05-31 13:58:00,73.9,65.5,29.74,SSW,196,6.3,16.1,75,0.00,,,0.23,WUHU21623XXSP,2013-05-31 17:58:00,
2013-05-31 14:03:00,74.1,65.7,29.74,WSW,247,3.6,16.1,75,0.00,,,0.23,WUHU21623XXSP,2013-05-31 18:03:00,
2013-05-31 14:08:00,74.5,66.1,29.73,SSW,205,1.6,8.5,75,0.00,,,0.23,WUHU21623XXSP,2013-05-31 18:08:00,
2013-05-31 14:13:00,74.8,66.0,29.73,SSW,202,5.4,11.4,74,0.00,,,0.23,WUHU21623XXSP,2013-05-31 18:13:00,
2013-05-31 14:18:00,75.0,66.2,29.73,South,185,3.4,13.4,74,0.00,,,0.23,WUHU21623XXSP,2013-05-31 18:18:00,
2013-05-31 14:23:00,75.0,65.8,29.73,SW,215,2.2,13.4,73,0.00,,,0.23,WUHU21623XXSP,2013-05-31 18:23:00,
2013-05-31 14:28:00,75.0,66.2,29.72,South,180,2.6,11.9,74,0.00,,,0.23,WUHU21623XXSP,2013-05-31 18:28:00,
2013-05-31 14:33:00,75.0,65.8,29.72,SW,219,2.2,8.3,73,0.00,,,0.23,WUHU21623XXSP,2013-05-31 18:33:00,
2013-05-31 14:38:00,75.0,65.8,29.72,SSW,205,2.5,5.6,73,0.00,,,0.23,WUHU21623XXSP,2013-05-31 18:38:00,
2013-05-31 14:43:00,75.4,66.5,29.71,SSW,197,2.2,4.7,74,0.00,,,0.23,WUHU21623XXSP,2013-05-31 18:43:00,
2013-05-31 14:48:00,75.6,65.9,29.71,South,183,2.4,6.7,72,0.00,,,0.23,WUHU21623XXSP,2013-05-31 18:48:00,
2013-05-31 14:53:00,75.7,66.1,29.71,SW,223,3.9,9.6,72,0.00,,,0.23,WUHU21623XXSP,2013-05-31 18:53:00,
2013-05-31 14:58:00,75.9,66.3,29.72,WSW,245,2.9,10.3,72,0.00,,,0.23,WUHU21623XXSP,2013-05-31 18:58:00,
2013-05-31 15:03:00,75.7,66.1,29.72,SW,225,4.3,10.3,72,0.00,,,0.23,WUHU21623XXSP,2013-05-31 19:03:00,
2013-05-31 15:08:00,75.6,65.9,29.71,SW,226,1.3,9.4,72,0.00,,,0.23,WUHU21623XXSP,2013-05-31 19:08:00,
2013-05-31 15:13:00,75.4,66.1,29.71,SSW,207,2.5,6.3,73,0.00,,,0.23,WUHU21623XXSP,2013-05-31 19:13:00,
2013-05-31 15:18:00,75.2,65.9,29.71,SSW,196,3.0,7.4,73,0.00,,,0.23,WUHU21623XXSP,2013-05-31 19:18:00,
2013-05-31 15:23:00,75.0,65.8,29.71,SSW,202,3.7,7.4,73,0.00,,,0.23,WUHU21623XXSP,2013-05-31 19:23:00,
2013-05-31 15:28:00,75.0,66.2,29.71,SSW,208,2.7,6.7,74,0.00,,,0.23,WUHU21623XXSP,2013-05-31 19:28:00,
2013-05-31 15:33:00,75.0,66.2,29.71,South,172,3.0,7.4,74,0.00,,,0.23,WUHU21623XXSP,2013-05-31 19:33:00,
2013-05-31 15:38:00,74.8,66.0,29.71,SSW,192,2.3,7.4,74,0.00,,,0.23,WUHU21623XXSP,2013-05-31 19:38:00,
2013-05-31 15:43:00,75.0,66.2,29.71,WSW,247,4.0,8.1,74,0.00,,,0.23,WUHU21623XXSP,2013-05-31 19:43:00,
2013-05-31 15:48:00,74.8,66.0,29.70,South,189,2.0,8.1,74,0.00,,,0.23,WUHU21623XXSP,2013-05-31 19:48:00,
2013-05-31 15:53:00,74.8,66.0,29.71,South,190,6.7,18.8,74,0.00,,,0.23,WUHU21623XXSP,2013-05-31 19:53:00,
2013-05-31 15:58:00,74.8,66.0,29.71,SSW,200,4.4,18.8,74,0.00,,,0.23,WUHU21623XXSP,2013-05-31 19:58:00,
2013-05-31 16:03:00,74.8,66.0,29.71,SSW,206,4.3,14.5,74,0.00,,,0.23,WUHU21623XXSP,2013-05-31 20:03:00,
2013-05-31 16:08:00,74.8,66.0,29.70,SSW,202,4.3,14.5,74,0.00,,,0.23,WUHU21623XXSP,2013-05-31 20:08:00,
2013-05-31 16:13:00,74.8,66.4,29.71,SSW,207,4.2,7.2,75,0.00,,,0.23,WUHU21623XXSP,2013-05-31 20:13:00,
2013-05-31 16:18:00,74.8,66.0,29.71,SSW,197,5.7,16.1,74,0.00,,,0.23,WUHU21623XXSP,2013-05-31 20:18:00,
2013-05-31 16:23:00,75.0,66.2,29.70,South,187,4.4,16.1,74,0.00,,,0.23,WUHU21623XXSP,2013-05-31 20:23:00,
2013-05-31 16:28:00,75.0,66.2,29.70,South,191,2.9,9.4,74,0.00,,,0.23,WUHU21623XXSP,2013-05-31 20:28:00,
2013-05-31 16:33:00,75.0,66.2,29.69,South,188,3.6,9.2,74,0.00,,,0.23,WUHU21623XXSP,2013-05-31 20:33:00,
2013-05-31 16:38:00,75.0,66.2,29.69,SW,214,1.9,9.2,74,0.00,,,0.23,WUHU21623XXSP,2013-05-31 20:38:00,
2013-05-31 16:43:00,75.4,66.9,29.69,SSW,196,2.4,7.6,75,0.00,,,0.23,WUHU21623XXSP,2013-05-31 20:43:00,
2013-05-31 16:48:00,75.4,66.9,29.69,SSW,195,2.5,7.6,75,0.00,,,0.23,WUHU21623XXSP,2013-05-31 20:48:00,
2013-05-31 16:53:00,75.4,66.9,29.69,SSW,199,2.8,6.9,75,0.00,,,0.23,WUHU21623XXSP,2013-05-31 20:53:00,
2013-05-31 16:58:00,75.6,67.1,29.69,SSW,192,2.7,6.9,75,0.00,,,0.23,WUHU21623XXSP,2013-05-31 20:58:00,
2013-05-31 17:03:00,75.6,66.7,29.68,SSW,193,3.5,8.3,74,0.00,,,0.23,WUHU21623XXSP,2013-05-31 21:03:00,
2013-05-31 17:08:00,75.6,66.7,29.69,SSW,202,4.0,8.9,74,0.00,,,0.23,WUHU21623XXSP,2013-05-31 21:08:00,
2013-05-31 17:13:00,75.4,66.5,29.69,SSW,202,3.6,10.7,74,0.00,,,0.23,WUHU21623XXSP,2013-05-31 21:13:00,
2013-05-31 17:18:00,75.4,66.5,29.68,SSW,202,8.1,10.7,74,0.00,,,0.23,WUHU21623XXSP,2013-05-31 21:18:00,
2013-05-31 17:23:00,75.4,66.5,29.68,South,180,0.9,10.3,74,0.00,,,0.23,WUHU21623XXSP,2013-05-31 21:23:00,
2013-05-31 17:28:00,75.6,66.7,29.68,South,175,3.7,6.9,74,0.00,,,0.23,WUHU21623XXSP,2013-05-31 21:28:00,
2013-05-31 17:33:00,75.7,67.2,29.69,SW,225,3.6,6.9,75,0.00,,,0.23,WUHU21623XXSP,2013-05-31 21:33:00,
2013-05-31 17:38:00,75.9,67.4,29.69,South,180,0.0,4.7,75,0.00,,,0.23,WUHU21623XXSP,2013-05-31 21:38:00,
2013-05-31 17:43:00,75.7,66.8,29.68,SSW,202,2.3,5.1,74,0.00,,,0.23,WUHU21623XXSP,2013-05-31 21:43:00,
2013-05-31 17:48:00,75.6,66.7,29.69,South,180,8.1,9.2,74,0.00,,,0.23,WUHU21623XXSP,2013-05-31 21:48:00,
2013-05-31 17:53:00,75.4,66.9,29.69,WSW,239,2.2,9.2,75,0.00,,,0.23,WUHU21623XXSP,2013-05-31 21:53:00,
2013-05-31 17:58:00,75.4,66.5,29.69,South,170,2.2,8.1,74,0.00,,,0.23,WUHU21623XXSP,2013-05-31 21:58:00,
2013-05-31 18:03:00,75.4,66.9,29.68,SSW,201,3.0,6.7,75,0.00,,,0.23,WUHU21623XXSP,2013-05-31 22:03:00,
2013-05-31 18:08:00,75.4,66.9,29.69,South,180,0.0,6.7,75,0.00,,,0.23,WUHU21623XXSP,2013-05-31 22:08:00,
2013-05-31 18:13:00,75.4,66.9,29.69,SSW,202,2.9,4.7,75,0.00,,,0.23,WUHU21623XXSP,2013-05-31 22:13:00,
2013-05-31 18:18:00,75.0,66.6,29.68,SSW,193,2.0,4.7,75,0.00,,,0.23,WUHU21623XXSP,2013-05-31 22:18:00,
2013-05-31 18:23:00,75.0,66.6,29.68,SE,135,0.0,4.9,75,0.00,,,0.23,WUHU21623XXSP,2013-05-31 22:23:00,
2013-05-31 18:28:00,75.0,66.6,29.68,South,177,2.4,4.9,75,0.00,,,0.23,WUHU21623XXSP,2013-05-31 22:28:00,
2013-05-31 18:33:00,75.0,66.6,29.67,SSW,206,1.8,9.2,75,0.00,,,0.23,WUHU21623XXSP,2013-05-31 22:33:00,
2013-05-31 18:38:00,75.0,66.6,29.67,SSW,202,0.9,9.2,75,0.00,,,0.23,WUHU21623XXSP,2013-05-31 22:38:00,
2013-05-31 18:43:00,75.0,66.6,29.66,South,180,2.0,4.9,75,0.00,,,0.23,WUHU21623XXSP,2013-05-31 22:43:00,
2013-05-31 18:48:00,75.0,66.6,29.66,SW,214,1.3,4.9,75,0.00,,,0.23,WUHU21623XXSP,2013-05-31 22:48:00,
2013-05-31 18:53:00,75.0,66.2,29.66,SE,138,1.7,2.7,74,0.00,,,0.23,WUHU21623XXSP,2013-05-31 22:53:00,
2013-05-31 18:58:00,75.0,66.2,29.66,South,180,0.0,2.7,74,0.00,,,0.23,WUHU21623XXSP,2013-05-31 22:58:00,
2013-05-31 19:03:00,75.0,66.6,29.65,SSW,206,2.2,3.6,75,0.00,,,0.23,WUHU21623XXSP,2013-05-31 23:03:00,
2013-05-31 19:08:00,75.0,66.6,29.65,South,182,1.1,4.7,75,0.00,,,0.23,WUHU21623XXSP,2013-05-31 23:08:00,
2013-05-31 19:13:00,74.8,66.4,29.65,SSW,202,0.0,4.7,75,0.00,,,0.23,WUHU21623XXSP,2013-05-31 23:13:00,
2013-05-31 19:18:00,74.8,66.4,29.65,SSW,202,0.0,1.1,75,0.00,,,0.23,WUHU21623XXSP,2013-05-31 23:18:00,
2013-05-31 19:23:00,74.8,66.4,29.65,East,82,1.6,4.0,75,0.00,,,0.23,WUHU21623XXSP,2013-05-31 23:23:00,
2013-05-31 19:28:00,74.5,66.1,29.65,NW,315,0.0,4.0,75,0.00,,,0.23,WUHU21623XXSP,2013-05-31 23:28:00,
2013-05-31 19:33:00,74.5,66.1,29.66,WSW,247,0.0,1.6,75,0.00,,,0.23,WUHU21623XXSP,2013-05-31 23:33:00,
2013-05-31 19:38:00,74.3,66.3,29.64,South,180,0.0,1.3,76,0.00,,,0.23,WUHU21623XXSP,2013-05-31 23:38:00,
2013-05-31 19:43:00,74.1,66.1,29.64,South,180,0.0,1.6,76,0.00,,,0.23,WUHU21623XXSP,2013-05-31 23:43:00,
2013-05-31 19:48:00,74.1,66.1,29.63,SE,135,1.0,2.9,76,0.00,,,0.23,WUHU21623XXSP,2013-05-31 23:48:00,
2013-05-31 19:53:00,73.9,65.9,29.62,West,270,0.0,2.9,76,0.00,,,0.23,WUHU21623XXSP,2013-05-31 23:53:00,
2013-05-31 19:58:00,73.8,65.8,29.64,West,270,0.0,2.5,76,0.00,,,0.23,WUHU21623XXSP,2013-05-31 23:58:00,
2013-05-31 20:03:00,73.6,65.9,29.66,SSW,202,2.2,2.2,77,0.00,,,0.23,WUHU21623XXSP,2013-06-01 00:03:00,
2013-05-31 20:08:00,73.2,65.6,29.66,SSW,202,0.0,2.2,77,0.00,,,0.23,WUHU21623XXSP,2013-06-01 00:08:00,
2013-05-31 20:13:00,73.2,65.6,29.66,SW,225,0.0,1.6,77,0.00,,,0.23,WUHU21623XXSP,2013-06-01 00:13:00,
2013-05-31 20:18:00,73.0,65.8,29.66,SE,135,0.0,1.6,78,0.00,,,0.23,WUHU21623XXSP,2013-06-01 00:18:00,
2013-05-31 20:23:00,72.9,65.6,29.65,SE,135,0.0,0.9,78,0.00,,,0.23,WUHU21623XXSP,2013-06-01 00:23:00,
2013-05-31 20:28:00,72.7,65.4,29.65,ESE,112,0.0,0.0,78,0.00,,,0.23,WUHU21623XXSP,2013-06-01 00:28:00,
2013-05-31 20:33:00,72.5,65.6,29.65,ESE,112,0.0,0.0,79,0.00,,,0.23,WUHU21623XXSP,2013-06-01 00:33:00,
2013-05-31 20:38:00,72.3,65.5,29.65,ESE,112,0.0,0.0,79,0.00,,,0.23,WUHU21623XXSP,2013-06-01 00:38:00,
2013-05-31 20:43:00,72.1,65.3,29.65,ESE,112,0.0,0.0,79,0.00,,,0.23,WUHU21623XXSP,2013-06-01 00:43:00,
2013-05-31 20:48:00,71.8,64.9,29.65,ESE,112,0.0,0.0,79,0.00,,,0.23,WUHU21623XXSP,2013-06-01 00:48:00,
2013-05-31 20:53:00,71.6,65.1,29.65,ESE,112,0.0,0.0,80,0.00,,,0.23,WUHU21623XXSP,2013-06-01 00:53:00,
2013-05-31 20:58:00,71.4,65.3,29.64,ESE,112,0.0,0.0,81,0.00,,,0.23,WUHU21623XXSP,2013-06-01 00:58:00,
2013-05-31 21:03:00,71.4,65.3,29.66,WSW,247,0.0,0.0,81,0.00,,,0.23,WUHU21623XXSP,2013-06-01 01:03:00,
2013-05-31 21:08:00,71.4,65.6,29.64,WSW,247,0.0,0.0,82,0.00,,,0.23,WUHU21623XXSP,2013-06-01 01:08:00,
2013-05-31 21:13:00,71.2,65.4,29.63,WSW,247,0.0,0.0,82,0.00,,,0.23,WUHU21623XXSP,2013-06-01 01:13:00,
2013-05-31 21:18:00,71.2,65.4,29.64,WSW,247,0.0,0.0,82,0.00,,,0.23,WUHU21623XXSP,2013-06-01 01:18:00,
2013-05-31 21:23:00,71.2,65.8,29.65,South,182,0.9,1.3,83,0.00,,,0.23,WUHU21623XXSP,2013-06-01 01:23:00,
2013-05-31 21:28:00,71.2,65.8,29.64,ESE,112,0.0,1.3,83,0.00,,,0.23,WUHU21623XXSP,2013-06-01 01:28:00,
2013-05-31 21:33:00,71.2,65.4,29.63,ESE,112,0.0,0.0,82,0.00,,,0.23,WUHU21623XXSP,2013-06-01 01:33:00,
2013-05-31 21:38:00,70.9,65.4,29.63,South,180,0.7,1.6,83,0.00,,,0.23,WUHU21623XXSP,2013-06-01 01:38:00,
2013-05-31 21:43:00,70.9,65.4,29.64,SW,225,1.1,1.6,83,0.00,,,0.23,WUHU21623XXSP,2013-06-01 01:43:00,
2013-05-31 21:48:00,70.9,65.4,29.64,SSE,157,0.0,1.1,83,0.00,,,0.23,WUHU21623XXSP,2013-06-01 01:48:00,
2013-05-31 21:53:00,71.2,65.8,29.64,West,270,0.0,0.7,83,0.00,,,0.23,WUHU21623XXSP,2013-06-01 01:53:00,
2013-05-31 21:58:00,71.2,65.8,29.64,WSW,247,0.0,0.0,83,0.00,,,0.23,WUHU21623XXSP,2013-06-01 01:58:00,
2013-05-31 22:03:00,71.2,65.8,29.64,SSW,202,0.0,0.0,83,0.00,,,0.23,WUHU21623XXSP,2013-06-01 02:03:00,
2013-05-31 22:08:00,71.2,65.8,29.65,South,180,0.0,0.0,83,0.00,,,0.23,WUHU21623XXSP,2013-06-01 02:08:00,
2013-05-31 22:13:00,71.2,65.4,29.64,SE,135,0.0,0.0,82,0.00,,,0.23,WUHU21623XXSP,2013-06-01 02:13:00,
2013-05-31 22:18:00,71.2,65.8,29.64,SSE,157,0.0,0.0,83,0.00,,,0.23,WUHU21623XXSP,2013-06-01 02:18:00,
2013-05-31 22:23:00,70.9,65.4,29.65,SSW,207,2.9,5.8,83,0.00,,,0.23,WUHU21623XXSP,2013-06-01 02:23:00,
2013-05-31 22:28:00,70.9,65.4,29.65,SSE,157,0.0,5.8,83,0.00,,,0.23,WUHU21623XXSP,2013-06-01 02:28:00,
2013-05-31 22:33:00,70.7,65.2,29.65,SSW,202,1.3,1.3,83,0.00,,,0.23,WUHU21623XXSP,2013-06-01 02:33:00,
2013-05-31 22:38:00,70.7,65.2,29.66,South,180,1.1,1.3,83,0.00,,,0.23,WUHU21623XXSP,2013-06-01 02:38:00,
2013-05-31 22:43:00,70.9,65.4,29.66,South,187,2.2,4.5,83,0.00,,,0.23,WUHU21623XXSP,2013-06-01 02:43:00,
2013-05-31 22:48:00,70.9,65.4,29.67,South,183,1.8,4.5,83,0.00,,,0.23,WUHU21623XXSP,2013-06-01 02:48:00,
2013-05-31 22:53:00,70.9,65.1,29.67,South,180,0.0,6.9,82,0.00,,,0.23,WUHU21623XXSP,2013-06-01 02:53:00,
2013-05-31 22:58:00,70.9,65.1,29.66,North,0,0.9,6.9,82,0.00,,,0.23,WUHU21623XXSP,2013-06-01 02:58:00,
2013-05-31 23:03:00,70.9,64.7,29.66,SSW,197,1.8,2.2,81,0.00,,,0.23,WUHU21623XXSP,2013-06-01 03:03:00,
2013-05-31 23:08:00,70.9,64.7,29.66,SW,225,4.0,4.0,81,0.00,,,0.23,WUHU21623XXSP,2013-06-01 03:08:00,
2013-05-31 23:13:00,70.9,64.7,29.66,SSW,198,1.5,4.0,81,0.00,,,0.23,WUHU21623XXSP,2013-06-01 03:13:00,
2013-05-31 23:18:00,70.9,64.4,29.66,SSW,202,1.4,3.1,80,0.00,,,0.23,WUHU21623XXSP,2013-06-01 03:18:00,
2013-05-31 23:23:00,70.9,64.4,29.66,SSW,202,0.8,4.3,80,0.00,,,0.23,WUHU21623XXSP,2013-06-01 03:23:00,
2013-05-31 23:28:00,70.9,64.0,29.66,SSE,157,2.2,4.3,79,0.00,,,0.23,WUHU21623XXSP,2013-06-01 03:28:00,
2013-05-31 23:33:00,70.9,63.6,29.66,SW,224,2.7,4.0,78,0.00,,,0.23,WUHU21623XXSP,2013-06-01 03:33:00,
2013-05-31 23:38:00,70.7,63.5,29.66,SSW,208,1.3,4.0,78,0.00,,,0.23,WUHU21623XXSP,2013-06-01 03:38:00,
2013-05-31 23:43:00,70.7,63.5,29.66,SE,135,0.0,4.3,78,0.00,,,0.23,WUHU21623XXSP,2013-06-01 03:43:00,
2013-05-31 23:48:00,70.7,63.1,29.66,SSE,163,1.5,4.3,77,0.00,,,0.23,WUHU21623XXSP,2013-06-01 03:48:00,
2013-05-31 23:53:00,70.5,62.9,29.66,SSW,202,0.0,3.8,77,0.00,,,0.23,WUHU21623XXSP,2013-06-01 03:53:00,
2013-05-31 23:58:00,70.5,62.9,29.66,SSW,196,1.9,3.1,77,0.00,,,0.23,WUHU21623XXSP,2013-06-01 03:58:00,